Theta_e
298 285 282 281 282 283 285 286 286 287 287 286 286 285 283 281 284 286 286 287 288 284 283 284 285 285 285 285 285 286 286 285 285 285 285 285 286 286 286 286 286 286 286 289 290 291 292 292 291 291 291 291 290 289 288 288 289 290 289 290 289 290 290 290 288 288 288 287 286 287 287 286 287 288 289 290 289 290 289 290 290 290 290 289 290 291
293 283 282 285 285 285 285 287 287 286 287 286 285 284 282 285 281 285 286 287 288 284 282 285 284 285 285 287 287 287 285 284 285 285 285 285 285 286 286 286 286 287 290 289 289 290 290 289 291 291 290 292 289 290 289 288 289 289 289 289 290 290 290 290 289 289 289 288 287 286 286 286 287 287 287 287 288 289 292 291 290 290 289 289 289 290
283 280 283 285 286 286 286 287 287 286 285 286 284 282 282 281 283 285 287 288 288 286 282 284 282 283 286 286 287 286 285 285 286 286 286 286 285 285 286 286 287 287 287 288 288 289 288 290 291 290 290 290 290 289 289 289 290 289 288 289 290 290 289 289 290 290 288 289 289 288 287 287 287 289 289 289 289 290 290 289 289 290 289 289 288 288
281 282 284 286 286 285 286 287 286 284 285 284 282 279 277 281 278 276 283 287 286 284 282 283 281 283 286 287 288 288 286 286 287 287 287 287 286 285 286 286 286 286 287 287 287 288 288 289 289 289 289 289 290 290 289 289 289 288 291 288 288 289 289 289 290 293 290 290 289 289 289 289 289 287 289 290 290 289 289 288 289 289 289 289 288 288
279 284 286 286 286 285 283 286 282 281 279 285 282 281 278 278 280 279 279 283 285 285 285 282 281 281 284 283 284 287 288 287 287 287 286 287 289 288 289 288 288 287 287 287 288 288 288 288 288 289 290 289 290 290 289 289 289 291 288 289 288 289 289 289 291 290 290 290 288 288 289 289 289 288 287 287 287 288 289 289 287 287 288 288 288 288
283 286 288 285 286 286 285 283 282 281 278 280 281 281 281 281 280 281 282 281 279 278 283 283 274 278 282 284 284 285 285 284 285 284 284 285 286 287 286 287 288 290 289 288 288 288 288 289 290 290 291 290 290 289 290 290 290 289 289 289 289 289 289 289 289 290 290 289 288 286 285 285 284 284 284 285 285 286 286 286 288 288 288 288 288 288
285 288 288 284 284 285 284 281 283 283 277 277 279 281 283 281 281 281 281 280 274 273 281 283 275 273 280 282 284 284 283 283 284 284 284 285 285 286 286 287 287 287 288 289 289 289 288 289 289 289 289 289 289 289 291 290 290 290 290 289 289 289 289 290 290 290 292 288 288 287 287 286 285 285 286 287 287 287 287 288 287 287 288 288 288 288
287 285 285 287 286 285 282 279 282 282 278 278 281 282 282 281 280 281 281 279 277 281 284 283 281 274 274 280 283 284 283 282 282 283 284 284 285 286 286 287 287 287 287 288 288 288 288 289 289 288 289 289 289 290 291 290 290 290 290 289 290 289 291 290 290 289 290 289 288 287 287 288 287 286 286 287 287 288 289 288 287 287 287 287 288 287
284 282 282 283 282 280 278 282 284 284 278 280 284 283 281 281 281 281 280 278 279 277 275 279 282 275 275 279 282 283 281 281 282 283 284 284 285 285 286 287 287 287 288 288 288 288 289 289 289 289 288 289 289 290 290 290 290 291 291 291 290 290 289 289 289 290 289 290 289 288 287 287 288 288 288 288 289 288 288 287 288 287 287 287 287 288
285 284 284 285 281 278 283 283 283 284 279 284 284 285 284 283 282 282 277 278 279 276 272 277 280 272 273 279 279 280 279 279 280 283 284 285 286 286 286 286 287 287 288 288 288 288 288 288 288 288 288 288 288 289 292 291 291 291 290 291 291 289 289 289 289 289 289 288 289 288 288 287 287 288 288 288 287 287 288 287 287 287 287 287 287 287
284 288 292 284 280 284 282 284 285 283 284 286 284 282 282 282 280 280 280 278 275 271 273 276 279 275 270 276 277 275 277 279 280 281 283 285 286 286 287 287 287 287 287 287 288 288 288 288 288 288 287 287 288 288 289 289 290 290 290 290 289 289 289 289 289 289 289 288 289 288 288 287 287 287 287 287 287 287 287 286 287 287 287 287 287 287
286 287 286 284 288 286 285 283 287 285 284 282 279 279 279 278 278 277 277 277 270 271 274 275 275 277 268 273 277 280 280 281 281 280 282 283 284 285 286 287 287 287 287 287 286 286 287 287 287 287 287 287 288 288 288 288 289 289 289 289 288 288 289 289 289 289 289 289 289 289 288 288 288 288 288 287 286 287 286 287 286 287 287 286 287 287
281 280 281 286 287 285 283 280 282 284 283 282 280 279 274 273 274 271 274 269 271 270 272 274 277 273 273 275 278 279 279 281 282 283 283 283 284 286 286 286 287 287 286 286 285 286 286 286 286 286 287 287 287 288 288 289 288 288 288 288 288 288 289 289 289 289 289 288 288 288 288 288 289 289 288 288 287 287 287 287 286 286 286 286 286 286
279 280 284 283 285 287 284 277 276 276 278 279 277 275 272 268 267 265 268 272 273 274 275 274 277 273 276 277 280 279 281 282 282 283 283 284 284 285 285 286 286 286 286 286 286 285 285 285 286 286 287 287 288 288 288 288 288 288 288 288 288 288 289 289 289 289 289 289 289 289 289 289 289 288 288 288 288 288 288 288 287 287 286 286 286 286
273 274 278 279 277 284 283 280 279 277 278 278 281 277 274 271 266 263 267 265 266 271 275 277 271 269 273 274 281 281 282 282 282 283 283 283 283 284 284 284 284 285 284 284 285 285 285 286 286 287 288 287 287 287 288 288 288 288 288 289 288 288 288 288 288 288 288 288 289 289 289 289 289 288 288 288 289 288 288 288 287 287 287 287 287 287
278 277 280 283 283 283 281 284 285 280 277 278 279 281 274 271 275 268 270 269 267 268 268 272 271 275 275 280 281 282 281 281 282 282 283 282 283 283 284 284 284 284 284 285 285 286 286 286 286 287 287 287 287 287 287 287 288 287 288 288 288 288 288 288 289 288 288 288 289 288 288 289 289 290 289 289 289 288 288 288 287 287 287 287 287 287
275 275 280 283 283 280 281 283 284 283 272 276 278 273 274 280 274 270 271 271 269 268 267 274 275 276 277 279 281 281 280 280 281 281 281 282 283 283 283 283 283 284 283 284 285 285 285 286 286 287 286 287 287 286 287 287 287 287 287 287 287 287 288 288 288 288 288 288 288 288 288 288 288 288 288 288 288 288 288 288 288 287 287 287 287 287
272 274 282 280 279 281 283 281 284 284 280 279 273 276 280 275 273 271 266 268 269 265 268 274 272 273 273 270 279 279 278 279 280 280 280 281 281 281 282 282 283 283 283 284 285 285 285 286 286 286 287 286 287 287 287 287 287 288 288 287 287 287 287 287 288 288 288 288 288 288 288 288 288 288 288 288 288 288 288 287 287 287 287 286 287 287
278 272 277 279 281 282 284 281 280 283 284 278 277 282 275 269 269 273 270 264 263 262 265 270 273 273 274 273 275 275 276 278 279 280 279 280 281 281 281 282 282 283 283 284 284 284 285 285 286 286 286 286 286 287 287 287 288 287 287 287 287 287 287 287 288 288 288 288 288 289 288 288 288 288 288 288 288 288 287 287 287 286 286 286 286 286
278 271 275 280 280 280 280 278 273 276 281 276 281 278 280 274 272 268 271 269 270 265 265 264 270 269 276 274 276 276 277 279 279 279 280 280 281 281 281 282 282 282 283 283 284 284 285 285 285 286 286 286 286 286 287 287 287 287 287 287 287 287 287 287 287 288 287 288 288 288 288 288 288 288 288 288 287 287 286 286 286 286 285 285 285 285
276 276 269 278 278 279 275 276 274 275 274 276 275 275 274 274 277 275 272 269 267 264 264 265 265 271 276 278 278 277 278 279 280 280 281 281 281 282 281 282 282 283 283 283 284 284 285 285 286 286 286 286 286 286 287 287 286 287 287 287 287 287 287 287 287 287 287 288 287 287 287 287 287 287 287 287 287 286 286 286 286 285 285 284 284 284
275 276 271 275 276 275 275 278 278 278 278 275 276 274 274 272 268 265 266 274 267 267 264 264 264 272 278 281 280 279 280 280 281 281 281 281 282 282 282 282 282 282 283 283 284 285 285 285 286 286 286 286 286 286 286 287 287 286 286 287 287 287 287 287 287 287 287 287 288 287 287 287 287 287 287 286 286 285 285 285 284 284 284 283 283 283
276 273 272 271 273 275 276 278 279 278 275 276 276 275 275 274 273 269 263 266 269 271 271 268 265 268 278 279 279 279 281 281 281 281 281 282 281 282 283 283 283 283 283 284 284 285 285 285 285 285 285 285 286 286 286 285 286 286 286 286 286 286 287 287 287 288 287 287 287 287 287 286 286 286 285 284 284 283 283 283 283 283 282 282 282 282
281 272 271 274 275 275 277 274 275 277 277 272 272 272 273 272 271 270 270 269 266 267 265 267 264 269 278 279 280 280 280 280 281 282 282 282 282 283 283 283 283 283 284 284 285 285 285 285 285 285 285 285 285 285 285 286 286 286 286 286 286 286 287 287 287 287 287 287 286 286 286 285 285 284 284 283 283 282 282 282 282 282 281 281 281 281
272 275 273 270 271 272 270 271 273 272 273 275 275 275 277 275 272 271 269 269 265 266 269 265 262 269 279 278 280 280 282 282 282 283 283 281 282 283 283 283 284 284 284 284 284 284 285 284 284 285 285 285 286 285 286 286 286 286 286 286 286 287 287 287 287 286 286 286 285 285 285 284 284 283 282 281 281 281 281 281 281 281 281 280 280 280
274 273 272 268 266 265 266 266 268 269 272 275 277 276 277 275 270 268 267 268 264 268 269 264 267 275 278 280 281 282 282 281 282 282 283 282 282 282 283 283 283 283 283 283 284 284 284 284 285 285 285 285 285 285 286 286 286 286 286 286 287 286 286 286 286 286 285 285 284 284 283 282 282 281 280 280 280 280 280 280 280 280 279 279 279 279
273 274 273 272 270 270 272 272 275 277 274 269 274 274 275 277 275 273 271 267 265 268 268 271 272 274 276 277 278 280 280 280 280 281 281 281 282 282 282 283 283 283 283 284 284 284 284 284 284 285 285 285 285 285 286 286 286 286 286 286 286 286 286 286 285 285 284 284 282 282 281 281 280 280 279 279 279 279 279 279 278 278 278 279 278 278
274 271 273 272 273 275 275 274 275 277 273 274 273 274 275 275 276 273 268 268 273 269 266 273 275 272 275 277 278 279 280 280 281 281 281 281 282 282 282 282 285 283 283 284 283 283 283 284 284 284 285 285 285 286 286 285 286 285 285 285 285 285 285 285 284 283 282 281 280 280 279 279 279 279 279 278 278 278 278 278 278 278 278 278 277 277
273 270 273 272 271 275 275 275 276 275 275 274 274 274 273 275 274 271 272 274 274 268 267 273 275 273 275 277 279 279 280 280 280 281 281 282 282 282 282 282 282 282 283 283 283 283 284 283 284 284 285 285 285 285 284 285 285 285 285 285 285 284 284 284 282 281 280 279 279 278 278 278 278 278 278 277 277 277 277 277 277 277 277 277 276 277
273 271 273 274 272 273 274 275 276 275 275 275 275 275 275 275 274 274 274 275 274 273 274 274 275 275 277 278 279 280 282 281 281 282 282 281 281 282 282 281 281 282 282 282 283 283 284 284 284 284 285 285 284 284 284 284 284 284 284 284 284 283 282 281 280 279 278 278 277 277 277 277 277 277 277 276 276 276 276 276 276 276 276 276 276 276
273 271 276 272 269 271 274 275 274 274 272 272 274 275 275 275 274 275 275 275 275 274 275 275 274 274 278 280 280 281 281 281 280 280 281 282 282 282 282 282 282 282 282 283 283 284 284 284 284 284 284 284 284 284 284 284 284 284 283 283 282 281 280 279 278 277 277 276 276 276 276 276 276 276 276 276 276 275 275 275 275 275 275 275 275 275
273 270 272 269 268 269 271 269 271 272 271 270 271 272 272 271 267 272 272 275 274 273 274 273 272 273 277 279 280 280 280 279 279 280 281 282 282 282 282 282 282 282 282 283 284 284 284 284 284 284 283 283 283 283 283 283 283 282 281 281 280 279 279 278 277 276 276 276 276 276 275 275 275 275 275 275 275 275 275 275 274 274 274 274 273 274
272 272 270 270 268 268 270 270 269 270 269 268 269 271 273 274 275 276 277 277 277 276 272 270 272 277 278 280 278 279 279 279 280 281 281 282 282 282 282 282 282 282 283 283 284 284 284 284 284 283 283 283 283 283 283 283 282 281 280 278 278 278 277 276 276 275 275 275 275 275 275 275 274 274 274 274 274 274 274 273 273 273 272 272 272 273
270 271 270 272 267 268 269 270 269 269 266 269 276 279 277 276 275 274 275 276 277 277 275 277 278 279 279 279 278 278 278 280 281 282 283 283 283 282 283 282 282 283 283 284 284 284 284 284 284 284 283 283 283 283 283 282 281 279 278 278 277 276 275 275 275 274 274 274 274 274 274 274 273 273 273 273 273 273 272 272 271 271 271 271 271 271
271 271 270 271 268 267 270 271 269 265 267 274 279 279 278 277 276 275 276 277 277 278 278 278 278 278 279 280 279 280 281 282 283 283 283 284 284 282 281 282 283 283 283 283 283 283 283 283 283 282 282 282 282 282 281 280 278 277 277 276 275 275 275 274 274 274 274 274 274 274 273 273 272 272 272 272 271 271 271 270 270 270 270 270 269 269
271 270 271 271 271 271 269 268 264 266 272 279 279 279 280 278 277 275 274 276 277 277 278 277 278 279 279 279 280 281 282 282 283 283 283 284 283 282 282 283 283 283 283 284 283 283 283 282 281 281 282 282 281 280 279 277 277 276 275 275 274 274 274 274 273 273 273 273 273 272 272 272 271 271 271 270 270 269 269 269 269 268 268 268 268 269
276 274 272 268 271 264 267 267 269 275 274 276 275 276 276 274 274 273 270 274 278 279 278 277 278 278 279 279 281 281 281 281 280 281 283 282 283 284 284 284 284 284 284 284 284 283 282 282 281 282 282 281 279 278 277 276 276 275 274 274 274 273 273 273 272 272 272 272 272 271 271 271 270 269 269 268 268 267 267 267 267 267 268 267 267 267
277 271 273 268 269 271 267 266 268 267 264 270 276 278 278 278 277 276 273 272 278 278 278 278 277 278 278 279 280 280 280 278 276 278 280 281 284 284 284 284 284 284 284 283 282 281 281 281 282 281 280 278 277 276 276 275 275 274 273 273 273 272 272 272 272 272 271 271 271 270 270 270 269 268 267 267 266 266 266 266 267 267 267 266 266 266
275 275 273 269 268 268 267 265 264 262 267 275 275 276 278 277 278 279 272 270 277 279 279 278 277 278 278 279 279 279 278 274 275 278 281 283 283 284 283 283 283 283 282 281 280 280 281 281 281 280 278 276 275 275 275 274 274 273 272 272 272 272 271 271 271 271 270 270 270 269 269 268 267 267 266 266 266 266 265 265 266 266 267 266 266 266
270 271 271 270 268 269 267 267 265 268 269 274 275 276 276 277 280 275 266 268 277 277 278 279 278 279 279 279 279 278 277 274 276 280 283 284 283 283 282 282 282 282 281 280 280 280 281 281 279 277 275 275 274 274 274 273 273 272 271 271 271 271 270 270 270 270 270 269 269 268 267 267 266 266 266 265 265 265 265 266 265 266 266 266 266 266
269 270 271 268 269 270 272 270 272 272 277 280 278 277 277 279 276 266 265 272 278 279 280 280 279 280 279 279 278 278 279 280 282 283 284 283 283 283 282 282 281 281 280 280 281 282 280 278 277 275 274 274 274 274 273 273 272 271 271 271 270 270 270 270 270 269 269 268 267 267 266 266 266 265 265 265 265 265 265 265 265 265 265 265 265 265
268 269 271 270 268 268 268 268 269 272 278 280 279 278 278 275 266 268 277 280 281 281 281 280 280 280 280 280 280 280 282 283 283 283 283 283 282 282 282 282 281 280 280 280 281 280 278 276 275 274 274 274 273 273 273 272 271 270 270 270 269 269 270 269 269 268 268 266 266 265 265 265 265 265 265 265 265 265 265 265 266 265 265 265 265 265
271 267 268 267 269 269 268 265 266 264 272 279 278 276 278 271 274 279 280 281 281 281 281 280 281 281 280 280 280 281 281 282 282 282 282 282 281 281 281 281 280 279 279 280 279 278 277 274 274 273 273 273 273 272 272 271 270 270 269 268 269 269 269 268 268 267 266 265 264 264 264 264 264 264 264 264 265 264 264 264 264 264 264 264 264 264
276 270 270 271 273 267 267 265 267 275 277 279 278 274 276 279 283 282 280 280 281 281 280 280 280 281 281 280 281 281 281 281 282 282 282 281 281 281 281 279 279 279 279 278 277 276 275 273 273 272 272 272 272 272 271 270 269 269 268 267 269 268 268 267 266 265 264 264 264 264 263 264 264 264 264 264 264 264 263 263 263 263 263 264 263 263
278 275 277 273 275 274 272 275 278 280 279 280 280 282 283 284 284 284 283 282 282 282 281 281 281 281 281 281 281 281 281 281 281 282 281 281 281 281 280 278 279 279 278 277 275 274 273 273 272 272 271 272 271 271 270 270 268 267 266 267 268 267 266 265 264 263 263 263 263 262 263 263 263 263 263 263 263 262 262 262 262 262 263 263 263 262
279 281 277 276 278 280 282 283 284 283 284 284 284 284 283 284 284 283 283 282 281 283 283 282 281 282 281 281 281 281 281 281 281 281 281 281 280 279 279 279 278 278 276 274 273 273 273 272 271 270 270 270 270 269 269 269 268 266 266 267 266 266 265 264 263 262 262 262 262 262 262 262 262 263 263 263 263 262 263 262 262 262 262 262 262 262
279 280 278 276 277 275 272 278 280 281 283 283 283 285 284 284 284 283 283 283 283 283 282 281 282 282 282 282 281 281 281 281 281 281 281 280 279 278 278 278 277 276 274 273 273 273 272 270 270 269 268 268 269 268 268 267 267 267 266 265 265 264 264 263 262 261 261 261 261 261 262 262 261 262 262 262 262 262 262 263 262 262 262 262 261 262
276 279 276 278 277 275 276 279 280 283 283 284 284 283 283 285 285 285 285 284 283 282 282 283 282 282 282 281 281 281 281 281 280 280 280 279 278 278 278 277 275 274 273 273 272 271 270 269 268 268 267 267 268 268 267 266 266 265 265 264 264 263 263 262 261 261 260 260 261 261 261 261 262 261 261 261 261 261 262 262 262 262 261 261 262 262
279 279 275 276 276 278 280 281 282 282 282 283 284 284 285 285 284 284 283 283 283 282 283 283 282 283 282 282 281 281 280 281 280 280 278 277 277 277 277 275 274 273 273 272 271 270 270 268 267 267 266 266 267 266 265 265 265 264 264 263 263 263 262 261 261 261 260 260 260 260 261 261 261 260 260 261 261 262 262 262 262 262 263 264 265 264
278 277 280 277 275 276 276 279 280 277 278 279 281 282 282 283 283 282 282 282 282 282 283 282 283 282 282 282 281 281 280 280 280 279 277 277 277 276 274 273 273 272 272 271 271 269 268 267 266 266 265 266 266 265 264 264 263 263 263 263 263 262 261 260 260 260 259 259 259 259 260 260 260 260 260 260 260 261 262 264 265 266 264 264 266 268
279 280 278 276 275 277 280 281 281 282 282 284 283 284 284 283 283 283 283 283 283 283 283 282 282 282 281 281 281 281 280 280 278 277 277 276 276 275 273 272 272 271 271 270 269 268 267 266 266 265 264 265 265 264 263 263 262 262 262 263 263 262 261 260 259 259 259 259 258 259 259 259 259 260 260 260 261 260 260 261 263 267 268 269 267 267
Wind_Speed
2 10 8 5 5 8 8 7 6 6 3 6 4 3 3 1 2 2 2 2 3 4 5 6 6 6 4 8 10 9 7 6 6 6 5 5 5 5 5 4 4 4 4 6 5 3 2 3 2 1 0 2 2 4 4 1 2 2 1 2 3 3 2 2 2 2 3 3 4 3 3 5 4 6 6 6 5 4 4 3 4 4 5 5 4 4
7 11 8 5 5 7 8 7 6 7 7 6 6 4 6 1 5 4 1 3 2 1 4 7 9 8 7 6 7 8 8 10 9 7 6 6 4 4 5 4 4 4 4 5 4 3 3 2 3 3 3 4 4 3 1 2 2 3 3 4 4 3 2 2 3 2 3 2 3 4 5 5 5 6 6 6 7 6 5 6 6 5 5 5 5 4
10 7 5 6 5 7 6 3 5 5 6 7 3 5 4 5 6 4 5 2 0 2 7 5 7 8 8 5 3 12 11 8 8 6 5 5 5 4 4 4 4 3 5 4 4 5 5 5 4 4 4 4 4 3 3 3 3 4 5 4 3 2 3 3 3 3 3 2 3 3 5 5 6 6 7 7 7 6 7 8 6 5 5 6 5 5
6 3 7 5 4 6 6 4 7 8 4 5 5 5 4 4 7 6 3 1 6 4 6 5 8 13 9 8 10 7 11 6 5 6 4 4 4 4 4 4 4 4 4 5 5 5 5 5 6 5 4 4 4 3 3 4 4 3 4 4 3 4 3 3 4 4 4 4 4 4 6 7 6 7 6 6 7 7 7 6 5 5 6 6 5 5
4 1 2 3 3 3 6 4 10 7 6 6 7 4 4 6 5 4 8 10 11 12 10 7 7 9 7 5 5 4 9 6 5 4 4 3 3 3 4 4 5 5 4 4 4 4 4 4 5 5 5 4 3 3 4 4 4 3 4 4 5 4 4 4 4 5 5 4 4 4 5 6 7 5 5 5 6 6 5 6 5 7 5 6 6 6
4 1 2 3 1 1 3 4 7 4 5 3 3 3 2 4 8 8 9 10 5 4 5 2 5 1 3 1 6 3 8 5 4 4 4 4 3 2 3 3 3 2 1 3 3 3 3 3 1 0 1 2 3 4 4 4 5 5 5 5 5 4 4 5 5 5 4 5 5 5 5 6 5 6 5 6 7 7 6 7 6 7 6 6 7 7
2 6 3 2 3 3 1 3 3 3 3 3 0 1 2 4 6 7 6 5 4 3 1 2 1 6 5 6 8 4 7 5 4 4 4 5 4 5 4 3 4 3 2 1 1 1 2 1 1 2 3 3 4 4 4 4 4 5 5 5 5 6 6 6 5 5 5 5 5 6 7 6 7 8 7 6 7 7 7 6 7 7 7 7 8 8
4 7 9 6 5 3 3 3 4 5 3 2 1 2 4 5 4 4 5 3 6 3 8 3 1 2 6 5 4 7 6 5 4 5 5 4 5 5 4 4 3 4 3 3 3 3 3 3 3 3 3 3 4 4 4 4 4 5 6 6 6 6 7 6 5 5 5 6 6 6 7 7 8 8 10 9 9 8 8 9 9 8 7 7 8 9
5 4 7 8 5 5 3 3 4 3 0 4 3 5 7 4 5 4 3 5 5 4 5 3 4 1 1 1 5 5 8 8 7 7 4 2 5 4 4 4 4 3 2 2 1 1 1 1 2 3 4 5 5 5 5 5 5 5 6 6 6 7 6 6 6 6 6 6 7 7 7 8 8 10 10 9 9 9 9 10 9 9 9 9 9 9
2 3 3 3 3 4 4 5 4 4 4 1 7 8 6 4 3 3 2 3 5 0 2 1 1 0 3 1 3 5 6 6 5 7 9 11 12 2 4 3 4 3 1 2 1 2 2 2 3 4 4 5 5 5 5 6 6 6 6 7 7 7 6 6 7 7 7 7 7 8 8 10 10 9 9 9 10 10 9 11 11 10 9 8 8 9
3 1 2 3 2 3 3 6 4 3 6 7 9 9 5 4 4 2 3 3 1 1 1 3 4 2 3 3 6 5 4 5 5 5 6 10 8 12 4 4 5 3 2 3 1 2 0 2 3 4 4 5 5 5 5 6 7 6 6 7 7 8 7 7 8 7 8 8 8 9 9 10 10 11 10 10 10 10 9 10 11 10 10 9 10 9
2 1 1 0 1 3 3 5 3 4 3 3 3 4 8 0 1 1 2 2 1 0 0 1 3 2 1 1 5 5 5 5 5 4 7 7 7 7 5 6 5 4 3 3 2 2 1 3 4 4 5 5 6 6 6 6 6 6 6 6 6 6 6 6 6 6 7 8 8 7 8 9 10 10 10 11 12 11 11 11 12 10 9 10 9 9
2 2 1 2 2 2 4 4 2 0 3 3 6 7 6 3 1 1 1 1 1 0 1 2 4 3 1 3 2 4 4 4 4 5 5 6 9 9 8 8 6 5 4 4 3 3 3 3 4 5 5 5 6 6 6 6 5 5 5 6 7 8 7 8 7 7 7 7 7 7 8 9 9 10 10 11 11 10 10 10 10 10 10 10 10 9
0 4 2 1 2 4 4 5 7 3 5 8 6 6 5 4 4 2 3 3 1 0 3 2 1 2 2 3 4 3 4 3 4 5 5 6 7 7 7 6 5 5 3 3 3 3 4 5 5 5 6 6 6 6 6 5 5 5 5 6 7 8 8 7 7 8 8 8 9 8 9 9 9 10 10 10 11 11 10 9 10 10 10 11 11 12
3 2 1 3 1 4 3 2 1 2 5 4 3 3 1 3 1 1 2 2 3 6 7 1 1 2 2 0 0 2 3 4 4 4 4 4 4 4 4 4 4 2 3 3 3 4 4 5 5 6 7 6 5 5 6 5 6 5 6 6 7 7 7 8 8 8 9 9 9 9 9 9 8 9 9 10 9 10 11 10 11 11 10 10 11 11
2 4 1 2 1 1 2 2 1 2 2 3 3 1 2 1 1 3 2 3 3 4 6 1 1 2 3 3 2 2 4 4 3 4 3 4 3 3 2 3 3 4 4 5 5 6 6 6 6 6 6 6 6 6 5 5 5 5 5 6 7 8 8 8 8 8 9 9 9 9 10 11 11 10 10 10 10 10 10 11 11 12 12 11 12 12
3 1 2 1 4 2 2 2 2 1 2 3 3 3 1 1 1 2 3 0 1 1 5 3 1 4 1 2 1 4 5 4 4 4 4 3 2 1 2 2 3 4 4 5 5 6 7 6 7 7 7 6 6 5 5 6 6 6 6 6 8 8 7 8 8 9 9 10 9 10 10 10 10 10 10 11 12 12 11 11 10 11 12 12 12 12
1 9 1 1 1 0 0 0 1 3 1 1 2 2 1 3 2 1 2 3 1 2 2 5 6 1 2 2 1 5 4 1 6 3 4 4 5 5 4 4 4 4 4 5 5 5 6 7 7 7 6 6 6 6 6 7 6 6 6 7 8 8 8 8 9 9 8 9 9 9 9 9 10 10 11 12 12 12 12 12 11 11 12 13 13 13
1 4 0 1 1 2 1 1 1 2 1 4 2 2 3 2 2 2 0 4 4 4 3 3 2 3 4 1 3 2 2 5 6 5 5 5 5 5 4 5 5 4 4 5 5 6 6 6 7 7 7 7 7 6 6 7 7 7 6 6 6 8 9 9 8 8 9 9 8 8 9 10 10 10 11 12 12 12 12 13 13 13 14 14 14 14
1 1 3 0 1 1 0 0 2 3 1 1 2 3 1 1 0 3 0 2 1 6 6 3 5 6 1 0 2 3 4 6 7 5 5 5 5 4 4 4 4 4 5 5 5 6 6 7 7 8 8 9 8 7 7 7 7 7 7 7 7 8 8 8 9 10 10 9 9 10 11 11 10 11 12 12 12 13 13 13 13 14 14 15 14 14
1 2 2 0 1 2 0 3 1 1 1 2 2 2 2 1 2 4 2 2 1 1 2 5 7 0 1 1 3 3 4 4 5 7 5 6 5 5 5 5 5 5 5 6 6 7 7 8 8 8 7 7 7 7 7 7 7 7 7 7 8 9 9 9 9 9 9 9 10 11 12 12 12 13 12 13 14 14 14 14 14 14 14 14 15 15
0 1 3 6 7 2 1 2 2 1 0 1 0 2 1 1 3 3 3 3 3 2 2 2 10 7 5 2 4 1 1 3 4 4 5 5 7 6 6 5 6 5 5 6 7 7 8 8 8 8 8 7 7 7 8 8 7 7 7 7 8 8 7 9 10 10 11 10 10 11 13 14 13 13 13 14 14 15 15 15 15 15 15 15 15 14
1 1 1 6 2 2 2 0 3 2 1 1 1 1 1 1 2 1 1 2 3 2 2 4 3 7 1 2 3 1 1 3 4 4 7 7 6 7 6 6 6 6 7 8 8 8 8 7 8 7 8 8 8 8 7 6 6 7 7 8 7 8 10 9 11 11 11 11 12 13 13 14 13 13 14 15 15 16 17 16 16 15 16 15 14 13
1 0 2 5 0 3 1 0 0 3 1 1 1 1 2 1 3 2 3 1 1 1 2 2 4 8 2 1 2 1 3 4 3 7 8 8 7 6 7 6 7 7 7 8 8 8 8 7 7 7 7 8 7 7 7 7 7 7 7 8 8 9 11 11 11 11 11 12 14 15 15 14 14 15 15 16 15 17 17 16 15 14 14 13 13 14
2 0 1 4 3 0 1 2 1 1 0 0 2 2 1 4 2 1 0 1 1 3 5 1 6 6 1 3 1 3 5 7 10 10 8 9 7 7 8 8 8 9 9 9 9 9 9 8 8 8 8 8 9 7 7 8 8 8 8 7 10 11 11 11 10 11 13 14 16 15 14 15 14 15 16 17 16 17 17 15 14 13 14 14 14 14
1 2 2 2 5 7 6 4 4 5 4 3 2 1 2 3 5 2 0 0 2 3 5 3 7 8 4 2 7 10 8 10 11 10 9 7 8 10 9 9 10 8 8 7 8 10 10 10 8 9 9 9 8 9 9 10 9 8 8 10 11 12 12 12 12 14 15 14 14 14 15 15 15 16 17 17 16 16 15 15 14 14 13 14 16 15
0 1 0 1 2 5 5 1 1 2 4 3 2 2 4 3 6 5 2 2 5 3 6 11 11 17 16 8 6 7 11 12 13 11 10 9 8 8 9 9 7 6 7 10 10 9 9 10 11 10 10 10 10 9 10 9 10 10 11 13 12 11 12 14 14 14 14 14 14 14 15 16 16 16 16 15 15 15 15 15 16 16 16 14 15 15
0 1 3 5 6 8 5 7 5 6 9 8 7 7 5 5 3 5 6 7 1 6 11 6 9 8 13 9 11 13 13 11 11 11 9 8 8 9 7 6 9 9 9 9 8 9 10 10 9 9 10 10 10 10 10 9 10 11 12 12 11 12 14 12 13 13 13 13 15 15 16 15 15 15 15 15 16 16 16 16 15 15 15 14 15 15
1 1 0 0 4 6 7 10 8 7 9 7 6 8 7 6 4 6 8 9 5 5 13 6 7 15 18 12 13 15 13 12 11 10 10 10 9 8 8 8 8 8 8 9 8 9 10 9 8 9 10 10 11 11 10 10 11 12 11 11 13 13 13 12 12 13 14 15 15 15 15 15 14 14 16 16 16 16 16 15 15 14 14 13 14 13
1 3 1 1 6 7 9 11 9 11 8 6 9 10 10 8 7 7 10 8 9 13 14 15 15 17 18 15 13 14 10 8 10 9 8 9 9 9 9 9 9 9 10 11 10 9 9 10 10 10 11 11 10 11 12 12 12 12 13 14 13 12 12 12 13 14 15 16 16 15 16 16 16 16 16 16 15 15 15 14 14 15 15 15 15 15
2 1 5 2 3 7 9 4 1 7 5 8 10 10 10 7 7 9 9 10 9 11 16 17 17 18 13 12 13 6 7 9 8 8 10 10 8 10 11 12 11 10 11 9 9 12 12 13 13 13 11 10 11 12 12 11 11 13 14 13 12 12 12 12 14 15 15 16 15 16 16 16 15 15 16 15 15 15 16 17 16 15 15 15 15 16
1 1 1 0 3 5 1 1 4 8 7 9 14 12 9 6 6 5 5 5 5 10 9 7 10 12 5 2 5 9 8 8 10 10 10 9 10 9 12 13 11 11 9 10 12 12 13 12 12 11 11 12 12 12 11 12 13 13 13 12 12 12 13 14 15 15 15 15 16 16 16 15 15 16 16 16 17 17 16 16 16 16 16 16 17 17
2 1 2 2 4 5 2 3 7 10 10 4 6 6 9 6 5 4 6 6 10 7 5 6 11 7 6 8 10 8 8 9 9 9 11 10 10 13 12 12 11 7 9 12 13 13 12 12 10 10 12 11 11 12 13 13 13 13 11 12 14 14 14 15 15 15 15 15 16 16 15 15 16 17 17 16 16 16 16 17 17 18 18 19 18 17
1 1 1 1 1 4 6 9 5 6 2 1 1 5 4 3 5 6 7 8 8 6 7 7 10 7 8 9 8 9 8 10 10 9 8 12 14 12 12 7 6 9 11 11 11 11 11 10 9 9 9 10 11 12 12 11 11 10 11 13 14 14 14 15 15 14 15 15 15 15 15 16 16 17 17 17 17 17 17 17 18 18 17 16 17 17
1 1 2 1 1 5 5 9 4 0 2 1 1 4 4 4 4 7 8 8 9 9 9 11 11 9 10 10 9 8 8 9 9 12 13 12 13 8 5 6 9 12 13 12 11 10 9 9 10 10 10 11 12 11 11 10 9 12 13 13 14 14 15 14 15 15 15 15 15 15 16 16 17 18 18 18 18 18 18 19 19 19 17 16 17 17
2 4 1 2 2 3 2 2 5 6 1 12 5 1 1 3 1 2 6 10 12 11 10 12 11 10 10 9 7 5 8 9 9 11 10 13 5 3 7 10 12 12 12 11 10 10 9 8 8 10 12 11 11 10 9 10 11 13 14 13 14 14 14 15 15 15 14 15 16 16 16 17 18 18 18 18 19 19 19 19 18 18 17 16 15 15
1 0 0 2 1 1 2 2 9 11 13 3 2 0 0 1 2 0 6 7 9 9 7 7 9 9 8 5 6 8 7 7 9 10 7 4 4 7 9 11 10 11 10 9 7 7 6 6 8 11 11 10 9 10 10 12 13 13 14 14 14 15 15 14 15 14 15 16 16 16 17 17 17 17 18 20 20 19 19 19 19 17 15 16 16 16
2 2 1 2 1 2 3 7 7 4 3 3 1 2 3 4 6 5 1 8 6 4 5 6 8 9 7 6 7 8 5 8 10 8 5 4 8 9 8 7 8 7 7 7 5 5 5 7 9 10 9 9 9 9 11 12 13 13 14 14 15 15 15 14 14 15 16 16 16 17 16 16 17 18 19 18 18 19 18 17 16 16 15 16 17 17
3 3 0 3 2 5 2 1 2 3 8 3 5 3 3 4 4 1 1 7 2 1 5 5 6 6 5 6 8 6 7 8 10 8 4 7 8 7 9 8 6 7 6 5 5 6 7 9 9 8 8 8 10 12 12 12 13 13 14 14 14 14 14 15 15 15 16 17 16 15 16 16 17 17 17 18 18 17 18 17 17 16 16 16 16 17
1 0 1 0 3 3 1 1 6 4 8 1 4 3 4 3 1 1 7 4 2 5 4 2 5 5 6 5 5 5 6 10 11 9 7 9 7 8 7 8 8 6 5 4 4 5 7 8 9 8 8 10 12 12 12 12 13 14 14 14 13 14 15 15 14 15 15 15 15 15 16 16 16 16 17 18 18 17 17 16 16 16 17 17 15 16
1 2 3 6 2 5 6 6 5 7 7 6 4 5 5 2 2 1 5 4 2 3 5 5 6 6 5 6 4 7 4 7 11 11 10 9 10 9 6 5 5 4 5 6 7 8 8 7 6 7 8 9 11 10 10 12 13 13 13 13 14 15 15 14 14 15 15 15 16 16 16 15 15 17 17 16 17 16 15 15 16 17 17 17 15 16
1 1 2 2 4 5 3 5 8 9 10 6 2 12 6 2 2 6 5 3 7 9 6 5 6 5 4 6 6 6 7 7 9 9 10 10 8 7 6 6 6 5 4 4 7 7 8 6 5 7 10 10 10 10 11 12 13 13 12 13 15 15 14 15 15 15 16 17 17 16 16 16 15 15 14 15 14 15 16 15 15 15 15 14 15 17
5 5 4 3 3 1 2 2 6 7 2 5 9 4 1 2 7 4 5 7 5 7 6 5 5 6 5 5 5 7 9 9 9 10 8 8 7 7 7 7 5 5 6 8 9 8 6 6 8 10 10 10 9 10 11 12 13 12 12 14 15 14 14 15 15 16 16 16 16 16 16 16 16 14 12 13 13 15 16 15 13 13 13 15 15 16
4 1 2 4 5 3 4 5 7 8 3 6 7 3 5 11 8 5 5 8 5 5 5 5 5 5 4 4 7 8 8 9 9 8 8 7 6 7 6 5 4 5 6 5 5 6 5 7 9 10 8 9 10 10 10 11 12 12 13 15 14 14 14 14 15 15 16 15 16 16 15 15 14 13 12 13 13 13 14 14 13 13 12 13 13 13
6 6 4 4 3 5 7 9 7 3 3 8 7 8 8 9 7 7 6 8 8 6 3 4 6 5 5 5 6 7 9 7 8 8 7 8 7 7 5 4 5 6 7 7 7 4 5 8 10 10 10 10 10 10 10 9 11 12 14 14 13 15 15 15 16 15 15 15 15 14 14 14 13 12 11 12 12 13 13 14 13 13 12 12 13 13
3 8 1 1 7 6 13 13 12 13 15 14 8 8 9 9 8 7 8 8 5 6 5 5 5 5 5 5 7 7 7 8 8 8 7 7 6 5 4 5 6 5 5 5 5 6 6 8 7 7 11 12 10 9 8 8 9 12 14 13 13 14 14 14 14 14 14 14 14 14 14 14 13 12 12 13 12 11 11 13 13 12 12 12 12 12
5 5 3 5 1 3 10 1 9 14 13 8 9 8 7 7 6 5 6 6 7 6 5 5 5 6 6 5 6 7 9 7 7 8 6 5 4 4 5 5 6 5 6 6 6 6 8 7 9 10 11 14 11 10 9 7 8 10 11 12 12 12 12 12 14 13 13 14 14 14 13 14 11 12 12 12 12 12 11 11 11 12 13 12 13 13
2 1 1 10 8 7 14 5 7 10 10 9 10 11 11 10 9 7 7 6 5 4 4 5 5 7 5 6 6 6 8 7 6 7 5 4 4 4 5 5 5 6 4 4 6 6 6 7 7 11 11 12 12 10 9 9 9 10 10 10 10 11 12 12 12 13 14 15 13 12 12 12 16 16 11 11 11 12 13 12 11 12 12 12 13 14
2 4 6 4 4 10 10 14 17 14 14 16 16 12 11 9 8 7 7 7 7 6 7 7 6 7 5 7 5 6 7 7 5 5 4 3 4 4 5 5 5 4 5 8 6 5 6 6 9 9 10 11 10 10 9 9 10 10 11 10 10 11 12 12 14 14 14 14 12 12 12 11 11 11 12 12 12 11 11 12 13 13 13 12 10 12
3 10 11 2 9 12 10 12 2 5 8 3 4 6 6 7 5 6 5 6 6 7 7 7 7 6 6 6 5 5 6 6 4 1 3 3 4 4 4 4 4 5 7 5 5 6 5 6 7 9 10 10 9 9 9 10 10 10 10 10 9 11 12 14 13 12 12 12 12 12 12 11 11 11 11 12 12 13 14 12 18 17 15 14 19 27
10 13 5 6 5 12 7 6 4 6 8 9 5 3 4 3 4 6 8 8 8 8 7 7 8 7 6 6 4 4 6 5 3 2 4 3 4 3 3 4 6 7 5 5 6 6 6 7 7 8 9 9 9 9 9 10 10 10 10 10 10 12 12 12 11 11 11 12 11 13 13 12 12 11 11 11 12 12 14 15 13 16 23 22 22 25
Wind_Direction
11 58 39 25 3 355 355 359 0 335 321 317 309 293 307 11 312 99 74 60 45 335 250 257 263 271 255 188 189 183 180 199 210 210 186 181 185 178 191 186 182 178 184 134 138 158 184 153 176 212 177 244 238 214 242 247 243 258 287 290 273 276 269 316 324 332 316 320 322 323 310 301 311 302 307 305 300 313 294 289 275 264 269 274 279 279
49 59 30 19 352 346 328 336 342 342 339 329 306 323 327 26 348 319 359 56 20 60 292 302 296 273 250 255 183 174 177 197 203 208 199 189 183 183 187 186 184 175 96 122 133 175 184 197 208 190 204 227 250 268 260 275 257 267 265 255 251 255 300 291 289 263 290 289 296 294 286 289 287 293 289 289 289 281 280 269 252 248 251 256 259 267
46 50 21 1 349 329 307 320 336 320 315 310 296 330 312 9 327 325 82 31 188 246 269 282 297 290 286 277 233 173 188 194 194 202 206 186 189 188 187 190 168 163 146 160 187 193 189 193 204 199 223 227 219 244 261 263 276 268 259 267 263 267 278 283 272 275 253 267 275 277 280 275 272 255 250 250 254 255 254 250 245 247 247 248 250 251
59 18 358 347 332 330 330 356 353 339 278 240 338 15 350 6 32 310 312 307 310 298 283 300 301 284 274 255 253 194 179 178 184 193 203 183 188 195 189 182 172 183 180 176 195 196 196 187 189 201 216 225 231 229 250 263 261 263 262 257 276 272 263 262 265 263 250 243 251 262 266 267 252 262 268 269 264 254 251 260 268 263 255 248 252 252
121 332 331 324 307 319 334 348 29 356 346 42 27 23 360 359 332 315 304 315 303 280 245 267 283 277 266 236 231 213 152 152 163 172 201 198 189 185 185 176 170 187 181 198 200 196 191 188 199 200 206 209 215 232 244 252 254 251 266 268 264 262 256 247 254 259 259 260 273 273 278 276 277 280 283 292 283 273 269 273 271 259 251 257 256 251
71 75 239 297 330 315 321 35 29 4 332 359 82 39 331 323 314 307 308 317 332 350 29 18 338 311 50 298 206 144 125 147 146 162 190 202 186 180 204 189 163 189 152 180 205 202 188 198 215 224 252 243 236 237 235 234 242 245 252 264 270 266 263 259 257 259 266 259 252 269 275 277 279 278 280 276 270 269 269 263 249 254 255 254 254 251
30 12 353 319 328 329 5 85 28 359 321 304 235 320 306 304 294 291 304 341 311 340 307 116 51 281 352 358 3 106 123 130 136 174 196 191 195 190 202 190 177 169 203 266 299 351 337 306 299 281 261 253 255 258 250 243 245 250 249 248 254 255 254 254 255 255 260 262 252 248 252 262 270 276 269 260 262 267 268 261 262 261 258 252 252 251
346 18 4 0 343 318 23 33 27 1 337 309 204 262 317 302 301 309 319 276 263 276 280 176 149 270 315 352 348 22 103 139 164 189 210 211 201 203 187 194 188 170 192 191 200 226 226 246 248 266 283 285 277 280 285 278 272 264 259 254 255 259 263 261 260 261 255 261 261 263 264 263 268 267 273 272 273 272 275 274 270 267 261 257 253 255
33 6 13 358 351 24 27 4 347 9 333 277 341 345 302 285 284 295 269 269 255 300 319 54 344 334 266 322 355 29 58 38 21 18 10 302 233 204 192 183 181 172 181 164 161 217 256 317 336 336 333 329 323 316 302 284 266 259 260 258 254 257 261 265 266 267 263 259 261 259 260 264 259 263 266 268 268 272 273 274 277 274 271 265 259 253
21 57 354 326 21 3 331 325 318 344 335 309 325 306 276 252 240 249 298 292 286 69 315 56 292 350 296 23 18 26 56 31 352 17 7 1 1 319 193 171 145 128 101 58 15 352 345 359 356 356 345 331 316 305 294 287 279 267 258 256 257 262 262 261 263 260 261 260 264 266 261 259 262 258 263 261 267 270 272 274 274 273 272 269 267 262
159 277 299 79 26 310 299 291 290 270 244 302 305 290 282 201 206 241 239 263 338 287 41 345 6 46 292 46 14 31 29 13 4 8 6 3 353 349 333 120 104 103 113 135 200 257 354 34 16 8 325 302 301 300 299 298 295 289 277 266 264 260 260 259 261 261 263 261 260 264 263 264 266 266 266 271 270 271 271 271 272 272 273 272 271 269
112 179 47 20 257 304 228 298 247 209 271 16 316 313 303 76 25 289 266 180 39 75 224 24 22 327 36 42 30 46 40 38 31 12 6 353 348 337 352 55 66 65 55 44 22 355 9 1 333 319 301 300 298 300 298 295 300 305 310 310 294 285 276 270 268 272 272 267 261 260 269 276 280 282 281 277 277 276 275 274 275 274 274 272 270 268
65 53 284 162 210 119 330 292 249 159 309 297 309 332 10 338 283 350 167 337 198 235 188 103 20 336 236 60 89 59 40 38 36 42 15 7 9 10 32 38 42 30 20 1 344 356 352 313 291 289 295 305 308 302 294 298 305 309 309 305 303 298 298 295 289 283 280 280 279 281 282 281 280 279 278 279 280 279 277 277 276 277 276 276 276 272
329 309 24 288 350 345 353 31 336 10 3 341 16 342 13 9 23 338 300 281 17 214 157 119 61 219 159 102 22 79 56 55 49 51 44 31 21 17 14 26 23 6 9 326 323 295 277 271 275 286 291 293 294 296 297 299 298 291 286 289 291 286 285 284 285 285 289 287 287 285 281 278 277 276 277 276 277 278 276 277 279 279 278 279 277 279
340 340 352 354 359 321 50 57 43 250 319 308 299 37 349 57 71 293 338 344 257 271 312 331 55 219 274 271 212 93 107 72 67 79 76 55 41 16 346 44 343 323 300 283 274 271 272 279 282 284 288 287 280 281 281 276 271 270 272 274 276 283 286 288 288 289 286 286 283 280 277 278 280 280 282 281 279 280 280 278 278 278 279 279 282 281
356 231 261 267 252 313 25 319 202 311 264 237 266 288 35 90 328 216 273 304 313 343 328 324 176 49 109 217 199 179 91 73 67 62 53 53 45 357 12 1 325 320 317 316 311 303 296 290 292 300 306 301 287 277 274 272 273 276 274 277 280 283 285 284 285 283 281 281 280 280 282 282 282 281 280 281 279 278 278 280 280 282 283 284 286 286
320 286 243 123 352 45 48 326 25 8 46 304 8 54 229 242 149 323 299 79 41 105 258 201 319 42 310 101 316 74 66 47 48 40 27 38 0 357 352 313 308 321 323 326 328 319 315 315 308 300 293 287 288 291 289 289 287 287 291 292 290 287 286 285 284 284 284 284 284 283 282 282 283 282 283 284 284 282 281 280 280 282 284 286 285 286
53 284 225 206 278 184 107 285 280 2 135 303 51 306 109 95 122 108 306 289 259 285 294 6 321 303 26 301 241 47 48 30 41 22 13 19 330 346 314 331 350 339 332 314 301 296 291 288 287 289 288 291 300 303 303 300 298 289 284 282 283 285 287 286 285 286 287 288 288 288 288 286 285 288 288 286 286 287 287 286 287 288 290 291 291 290
64 323 302 302 30 165 222 34 359 309 74 98 182 221 61 356 12 305 201 337 338 315 289 276 25 312 283 164 354 30 29 0 19 356 356 344 337 321 331 330 339 323 315 302 291 289 289 289 293 297 300 302 301 298 296 296 296 293 286 281 279 285 284 284 286 288 290 290 291 292 291 290 290 287 286 285 285 288 289 289 289 288 289 290 291 290
299 159 286 271 305 171 93 71 40 321 63 327 15 15 51 130 131 346 54 232 191 278 3 289 19 275 64 202 30 49 20 7 348 354 341 334 309 319 339 331 315 313 296 297 296 293 294 297 299 303 303 303 302 301 297 295 293 290 289 292 292 288 288 293 294 294 294 293 290 289 288 285 283 284 285 287 291 292 291 291 292 292 293 292 292 292
309 106 265 258 159 62 71 6 54 347 2 1 22 57 17 27 215 172 235 137 211 255 257 302 310 228 139 267 81 66 39 352 335 340 325 308 328 337 335 324 316 303 302 300 303 304 304 305 305 302 302 301 299 295 293 289 287 286 289 291 290 292 295 294 295 297 295 295 292 291 291 294 296 296 298 298 297 296 296 297 295 293 292 293 291 292
2 317 262 312 330 5 122 351 343 7 222 121 121 104 146 59 21 45 298 78 19 57 289 308 276 274 276 96 115 88 78 295 328 310 307 328 338 332 325 321 304 310 307 310 309 310 309 306 304 302 300 298 296 295 295 293 295 297 296 294 296 297 298 301 302 299 296 294 293 293 295 295 297 298 299 300 302 301 301 299 298 296 295 292 292 291
109 259 284 297 281 9 92 95 4 61 65 130 80 106 115 234 63 24 305 290 10 273 325 238 289 285 179 115 118 178 182 291 290 320 335 335 330 325 315 308 309 310 312 313 314 312 308 304 301 299 297 294 293 292 292 296 297 300 302 303 301 302 301 301 300 300 301 299 299 300 301 303 305 307 308 308 306 303 301 299 297 297 294 293 293 292
112 89 305 276 272 40 124 260 18 353 328 25 358 16 38 93 137 175 235 172 267 296 324 272 223 259 253 185 164 257 209 237 298 346 332 326 317 310 311 313 318 319 313 312 306 302 299 299 299 301 304 302 302 303 302 302 305 306 306 304 304 304 304 303 301 301 302 306 308 309 309 307 307 307 307 304 303 300 298 296 295 294 293 293 295 295
22 124 95 296 307 271 17 334 317 299 314 342 6 195 71 98 86 127 106 72 303 207 214 160 248 271 242 284 267 241 324 341 338 333 331 322 318 315 319 319 315 311 307 304 305 305 308 312 314 313 311 313 312 312 313 313 312 309 308 311 310 308 307 306 308 313 313 311 309 308 308 306 306 306 306 303 301 300 299 298 298 298 296 296 294 293
163 282 37 20 354 349 346 338 322 327 323 300 284 95 158 147 130 67 14 284 215 245 185 220 260 250 283 298 304 320 332 331 326 320 320 321 319 318 317 311 302 298 297 302 314 323 322 319 318 318 318 315 315 314 315 312 311 313 315 316 315 311 313 315 318 316 312 310 309 309 309 309 308 306 304 303 302 301 301 302 300 299 298 297 295 295
252 333 256 231 219 246 263 300 159 359 319 299 270 238 256 214 172 164 179 200 212 264 272 247 251 287 287 293 297 314 330 320 318 317 315 314 309 304 297 293 294 302 317 323 322 320 322 322 319 316 315 315 314 316 317 320 323 322 319 314 312 315 320 320 317 314 312 312 311 311 309 308 307 305 305 304 304 303 301 300 299 296 294 295 293 293
291 318 233 206 245 257 287 290 294 308 273 270 283 276 267 258 225 204 175 220 42 20 285 239 242 256 280 313 314 314 313 310 304 304 304 302 303 298 299 308 320 323 321 320 319 323 318 310 309 313 314 316 318 317 317 322 321 319 315 313 318 323 322 317 315 314 314 314 312 310 309 308 307 306 304 304 302 300 299 298 297 296 296 296 296 296
72 261 286 145 248 254 275 274 274 269 252 250 248 254 258 246 222 228 243 240 243 212 244 260 325 301 288 297 304 301 302 302 298 309 312 305 301 309 314 314 314 320 324 317 308 305 304 306 313 317 320 321 319 319 325 328 325 319 316 318 320 319 317 318 316 316 315 313 311 310 309 308 307 305 303 302 301 300 300 300 300 301 302 303 304 302
63 225 326 348 300 295 281 271 263 252 264 268 259 260 262 264 252 238 251 240 227 245 255 274 279 274 280 290 290 289 291 294 305 302 300 306 308 311 317 316 318 319 314 303 299 304 311 319 324 325 323 320 325 328 329 325 322 322 322 320 319 320 320 321 318 317 316 313 311 310 310 308 306 305 305 304 305 306 308 309 311 311 309 307 304 303
116 293 67 332 308 294 285 275 270 273 279 279 263 253 256 256 266 254 256 258 250 257 258 262 271 274 274 267 268 281 302 303 297 305 304 305 317 323 321 318 314 312 305 308 327 331 329 329 328 325 324 330 332 328 325 322 323 324 321 319 321 322 322 323 318 317 314 311 311 311 310 309 308 309 310 313 313 314 315 314 312 309 307 306 305 305
81 247 97 109 332 292 321 341 271 272 279 268 279 274 251 242 258 263 238 225 200 239 252 263 270 273 279 272 318 309 306 303 304 305 309 316 317 316 315 312 313 310 314 326 326 325 325 325 324 326 333 333 330 326 326 326 326 324 321 323 324 323 322 320 316 314 312 311 313 313 313 312 314 316 316 317 315 314 314 313 311 310 310 310 310 310
181 13 356 341 312 263 234 253 275 299 304 306 276 227 201 202 205 234 249 213 214 218 259 261 257 268 299 316 309 304 303 302 302 308 311 311 314 313 309 307 310 318 324 327 327 323 322 322 323 330 331 329 327 328 328 329 325 323 326 328 324 322 321 317 315 314 313 314 316 316 315 318 320 318 316 315 316 316 315 315 314 314 315 312 312 310
76 126 232 307 257 277 316 310 318 352 359 215 207 147 153 226 213 234 253 245 250 186 226 218 255 281 296 297 298 302 306 300 306 309 317 318 314 308 308 310 317 321 324 322 319 318 317 323 326 328 327 326 327 327 325 325 322 325 329 323 320 320 317 316 316 316 315 317 317 319 322 321 320 318 318 319 319 318 317 318 316 315 313 312 313 312
150 133 208 226 238 286 317 312 306 278 246 214 126 199 197 212 208 217 252 270 271 272 276 284 283 290 285 283 283 285 292 305 317 318 316 307 298 310 316 318 325 332 323 320 319 320 325 326 328 329 329 329 329 327 327 329 335 331 323 323 320 318 317 318 317 317 318 318 322 323 323 323 323 321 320 319 320 320 318 317 316 316 317 316 314 311
158 146 242 277 227 295 328 13 354 246 246 301 300 261 117 111 142 2 275 255 261 252 252 259 264 265 268 277 283 297 310 307 310 298 292 286 300 314 335 338 329 324 319 318 321 325 330 333 333 332 328 329 328 328 336 334 332 326 321 321 319 319 321 320 318 317 321 324 324 324 325 326 323 320 322 323 322 319 319 319 320 320 319 315 312 310
168 304 115 288 163 190 266 260 229 287 309 308 76 294 114 186 192 171 299 286 271 272 256 256 268 271 275 282 297 303 299 305 299 292 273 275 340 349 343 324 321 314 314 317 322 325 334 336 334 326 325 326 332 337 338 333 329 324 322 322 322 322 320 320 319 323 326 323 324 328 328 326 325 324 325 323 321 321 322 322 321 318 317 314 313 312
323 155 309 93 296 102 339 324 325 351 332 276 187 98 37 89 108 120 153 287 288 265 198 223 245 254 270 285 294 294 314 314 300 295 285 333 346 331 322 310 307 308 310 312 327 336 334 330 326 325 329 331 338 340 334 329 327 325 324 323 323 323 321 323 324 325 324 325 329 328 328 328 328 325 324 324 323 322 321 319 317 315 315 313 312 311
314 329 144 127 272 10 19 269 262 264 255 191 203 181 139 118 116 136 55 284 253 229 208 212 240 255 273 296 302 320 325 304 291 293 307 334 322 320 313 307 304 307 313 323 338 338 333 328 327 326 335 342 338 335 333 329 329 328 324 322 321 321 322 325 325 327 329 329 329 330 329 327 326 324 322 322 321 320 319 318 316 313 311 310 309 306
26 276 75 265 236 199 166 250 257 224 264 287 143 163 169 118 117 70 342 298 246 264 252 256 270 283 287 290 302 316 304 301 300 301 316 318 318 316 314 312 317 319 325 332 337 337 328 327 332 338 345 343 335 333 334 334 329 326 323 320 320 323 325 325 327 329 328 325 326 327 325 324 324 323 322 320 318 318 316 314 313 313 312 311 308 306
161 249 188 215 201 229 227 258 277 275 264 255 206 160 145 164 104 82 265 256 238 290 304 310 295 289 290 296 299 296 256 250 285 300 314 317 319 313 308 304 304 322 336 342 333 337 332 330 338 340 345 336 331 335 336 332 326 322 322 321 324 326 327 327 328 329 327 327 326 324 323 322 323 321 320 318 317 315 312 314 314 313 313 312 310 306
197 190 216 192 232 222 210 232 240 257 257 222 237 144 161 88 315 251 232 305 329 315 292 280 284 284 282 274 276 260 279 286 292 302 308 309 302 299 306 311 321 332 332 330 333 336 328 334 347 344 337 336 336 339 336 331 324 321 324 326 325 327 330 329 329 329 329 327 323 321 321 320 320 319 316 313 312 313 313 313 313 312 312 311 309 308
183 147 204 200 221 185 168 257 318 305 284 101 119 85 193 149 228 222 289 305 290 284 287 293 282 280 271 279 270 283 293 297 299 300 298 301 306 306 313 319 330 336 333 335 335 333 343 351 347 340 334 332 336 338 334 327 323 324 326 324 325 330 330 329 330 331 327 324 321 322 321 319 316 313 311 309 309 310 313 313 311 308 307 309 309 307
165 108 222 210 169 169 177 188 215 213 177 172 135 211 208 213 247 280 294 285 269 271 288 278 274 266 274 278 293 293 291 297 300 300 302 302 304 308 311 322 335 332 327 323 321 329 16 351 340 332 332 332 334 335 332 330 326 328 326 323 330 330 329 331 334 331 326 323 321 319 317 313 310 309 308 310 312 312 308 308 307 305 306 306 306 305
192 186 190 207 201 176 214 223 237 270 156 205 210 229 250 260 265 270 267 273 288 282 247 273 278 283 279 285 287 292 300 292 289 296 304 306 308 308 316 328 330 327 328 328 329 2 10 350 334 331 331 331 331 334 333 334 331 328 324 325 333 331 333 334 333 328 323 320 317 314 313 310 311 312 313 314 314 311 310 307 309 307 307 307 305 304
212 205 76 54 249 267 267 258 274 279 275 270 241 233 249 258 261 256 258 270 261 261 267 264 273 283 293 290 297 294 284 290 296 300 303 302 301 305 331 334 328 325 327 331 342 0 351 341 331 332 329 325 333 332 336 337 340 330 325 330 333 334 335 332 328 325 321 317 315 314 312 312 314 316 315 314 311 308 307 308 310 308 308 309 305 304
232 224 197 222 242 26 283 151 215 247 261 265 269 273 273 271 269 260 273 262 268 267 271 275 278 286 282 287 280 280 287 291 294 293 294 300 311 326 330 321 316 324 331 345 348 353 346 342 338 336 332 325 332 338 337 340 338 329 327 331 335 336 332 328 326 320 318 316 314 313 315 318 318 318 318 316 313 311 309 308 307 307 308 308 307 305
312 70 241 242 240 212 249 245 274 267 270 274 278 281 277 275 274 271 256 256 256 264 266 275 287 289 287 286 276 278 281 287 291 293 296 305 326 327 322 317 318 325 340 358 344 351 343 347 342 331 328 327 332 336 338 340 336 333 332 331 336 333 330 327 328 324 317 316 316 316 319 318 319 320 315 314 313 312 313 311 308 307 306 308 307 309
196 108 243 154 204 254 276 273 265 274 268 266 265 265 265 266 270 278 280 281 284 287 287 285 273 269 274 271 277 278 285 285 283 286 307 335 331 322 313 317 320 332 353 344 340 352 351 351 337 328 325 324 330 336 338 337 334 336 334 335 334 334 331 328 326 320 316 317 318 318 319 317 316 317 316 314 313 306 306 309 311 308 303 298 294 297
113 235 241 294 276 268 246 264 253 300 296 265 240 243 248 252 251 261 279 289 286 282 277 280 283 277 272 270 269 271 281 288 295 353 343 323 309 302 315 323 340 353 337 331 343 345 354 347 332 326 326 327 334 335 335 332 334 334 335 332 334 337 332 328 323 321 317 320 320 318 318 318 318 318 316 316 315 315 310 300 305 309 308 307 306 308
212 231 183 203 196 256 246 238 214 228 270 279 273 272 279 284 292 288 277 271 272 267 271 280 287 291 288 284 273 279 282 287 305 36 340 320 296 298 313 356 359 335 326 344 343 343 350 338 333 327 328 332 334 332 334 332 332 332 332 332 336 338 330 326 324 319 316 320 319 320 320 319 318 319 319 319 318 316 315 315 312 308 309 309 310 310